www.pogodaiklimat.ru

Погода и климат >> Архив погоды >> Россия >> Приморский край >> Лесозаводск


ПОГОДА в Лесозаводске

  • Прогноз погоды в Лесозаводске
  • Монитор погоды в Лесозаводске

АРХИВ ПОГОДЫ в Лесозаводске

Время (UTC), дата Ветер
(напр.,м/с)
 
Видим.   Явления Облачность Т
(С)
Тd
(С)
f
(%)
Тe
(С)
Тes
(С)
Комфортность P
(гПа)
Po
(гПа)
Тmin
(С)
Tmax
(С)
R
(мм)
R24
(мм)
S
(см)
03 15.08 ЮЗ 1 50 км 10 баллов +25.2 +19.8 72 +31 +31 очень
душно
1002.6 990.7
06 15.08 СЗ 1 н/о н/о +23.4 +21.1 87 +31 1002.6 990.7
09 15.08 СВ 2 20 км {ливн. осадки} 10/10 600 м
[Cb cap]
+22.8 +22.5 98 +31 +31 очень
душно
1001.2 989.3 +25.4 0.3
12 15.08 В 1 н/о н/о +21.8 +21.1 96 +28 1000.0 988.0
15 15.08 В 1 10 км слаб. дождь 10 баллов +20.4 +20.1 98 +26 +26 душно 998.7 986.7
18 15.08 СВ 3 н/о н/о +19.0 +21.1 114 +21 997.3 985.3
21 15.08 В 4 10 км слаб. дождь 10/0 600 м
[As op]
+18.8 +18.8 100 +20 +20 994.9 982.8 +18.7 4
00 16.08 СВ 3 н/о н/о +20.2 +21.1 100 +24 +24 комфорт 1001.6 981.4
03 16.08 СВ 4 20 км 10 баллов +21.7 +21.2 97 +28 +28 душно 993.2 981.3
06 16.08 СВ 3 н/о н/о +21.2 +21.0 99 +27 991.9 980.0
09 16.08 СВ 1 10 км слаб. дождь 10/0 600 м
[As op]
+21.1 +19.1 88 +25 +26 комфорт 990.6 978.6 +22.4 23
12 16.08 штиль 0 н/о н/о +20.0 +17.9 88 +23 992.0 980.0
15 16.08 штиль 0 10 км слаб. дождь 10 баллов +19.8 +19.5 98 +23 +23 комфорт 992.0 980.0
18 16.08 Ю 1 н/о н/о +19.4 +17.4 88 +23 993.3 981.3
21 16.08 Ю 1 10 км слаб. дождь 10/0 600 м
[As op]
+19.3 +19.3 100 +23 +23 комфорт 992.5 980.5 +19.2 36
00 17.08 Ю 1 н/о н/о +21.3 +19.2 88 +26 +26 душно 993.2 981.2
03 17.08 Ю 2 20 км 10 баллов +25.0 +22.7 87 +33 +33 очень
душно
994.5 982.7
06 17.08 ЮЗ 1 н/о н/о +25.3 +23.2 88 +34 994.4 982.7
09 17.08 ЮВ 1 20 км 10/10 600 м
[Cb cap]
+23.0 +21.8 93 +31 +31 очень
душно
994.4 982.5 +26.7 5
12 17.08 Ю 2 н/о н/о +20.4 +18.3 88 +25 998.7 986.7
15 17.08 Ю 2 20 км 10 баллов +18.7 +15.9 84 +20 +20 1000.1 988.0
18 17.08 Ю 2 н/о н/о +18.4 +15.1 81 +19 1001.5 989.3
21 17.08 Ю 1 20 км 10/10 600 м
[Cb cap]
+17.3 +14.6 84 +18 +18 1002.3 989.9 +17.3
00 18.08 Ю 2 н/о н/о +19.8 +16.1 79 +23 +23 комфорт 1004.0 991.7 +17.3
03 18.08 Ю 1 20 км 9 баллов +21.4 +17.6 79 +26 +27 душно 1005.4 993.3
06 18.08 Ю 3 н/о н/о +25.2 +18.4 66 +30 1003.9 992.0
09 18.08 Ю 1 20 км 6/4 600 м
[Cb cap Ci sp]
+23.2 +19.0 77 +29 +30 душно 1004.0 991.9 +25.3 0.7
12 18.08 Ю 1 н/о н/о +17.5 +15.5 88 +19 1007.0 994.7
15 18.08 Ю 2 20 км 10 баллов +18.5 +16.5 88 +20 +20 1009.5 997.3
18 18.08 Ю 2 н/о н/о +17.8 +15.8 88 +18 1009.6 997.3
21 18.08 Ю 1 20 км местами туман поземный 3/3 600 м
[Sc]
+16.5 +16.3 99 +17 +18 1010.8 998.4 +16.5 9
00 19.08 ЮЗ 1 н/о н/о +20.8 +18.5 87 +26 +26 душно 1011.7 999.4
03 19.08 ЮЗ 1 20 км 7 баллов +22.4 +18.8 80 +28 +33 душно 1012.1 1000.0
06 19.08 З 1 н/о н/о +24.3 +20.0 77 +30 1010.7 998.7
09 19.08 З 1 20 км гроза без осадков 10/10 600 м
[Cb cap]
+20.3 +19.8 97 +25 +25 комфорт 1012.2 1000.0 +25.5
12 19.08 ЮВ 2 н/о н/о +18.7 +18.7 100 +20 1012.3 1000.0
15 19.08 Ю 1 20 км 10 баллов +18.9 +18.9 100 +22 +22 комфорт 1013.6 1001.3
18 19.08 ЮЗ 2 н/о н/о +17.4 +17.4 100 +18 1013.6 1001.3
21 19.08 ЮЗ 2 4000 м дымка 10/10 600 м
[Sc]
+17.8 +17.8 100 +18 +18 1012.3 999.9 +17.3 7
00 20.08 ЮЗ 2 н/о н/о +19.7 +18.9 95 +23 +23 комфорт 1012.4 1000.1
03 20.08 ЮЗ 1 50 км 7 баллов +23.3 +18.6 75 +29 +35 душно 1013.4 1001.3
06 20.08 Ю 2 н/о н/о +25.5 +18.2 64 +30 1010.7 998.7
09 20.08 ЮЗ 1 20 км 4/3 600 м
[Cb cap Ci sp]
+22.4 +18.4 78 +28 +28 душно 1010.5 998.3 +25.7
12 20.08 Ю 1 н/о н/о +19.2 +18.4 95 +22 1012.2 1000.0
15 20.08 ЮВ 1 20 км 4 балла +17.3 +17.1 99 +18 +18 1011.0 998.7
18 20.08 ЮВ 1 н/о н/о +16.9 +16.9 100 +18 1011.0 998.7
21 20.08 ЮВ 1 4000 м дымка 10/0
[Ac As]
+17.1 +17.1 100 +18 +18 1010.3 997.8 +16.6
00 21.08 Ю 1 н/о н/о +18.7 +18.4 98 +21 +21 комфорт 1010.0 997.7
03 21.08 Ю 2 20 км 10 баллов +20.6 +18.9 90 +25 +25 комфорт 1009.4 997.3
06 21.08 ЮВ 1 н/о н/о +21.1 +18.3 84 +25 1008.1 996.0
09 21.08 ЮВ 2 10 км слаб. дождь 10/0 600 м
[As op]
+18.1 +17.9 99 +19 +19 1006.9 994.6 +21.2 2
12 21.08 Ю 2 н/о н/о +17.6 +17.4 99 +18 1008.3 996.0
15 21.08 Ю 2 20 км 10 баллов +17.7 +16.7 94 +18 +18 1006.9 994.7
18 21.08 Ю 1 н/о н/о +16.7 +16.7 100 +18 1007.0 994.7
21 21.08 Ю 1 20 км 6/0
[Ci sp]
+16.3 +16.3 100 +17 +17 1007.2 994.8 +15.9 8
00 22.08 Ю 1 н/о н/о +19.3 +18.2 93 +22 +22 комфорт 1006.8 994.5

 

Местоположение метеостанции Лесозаводск (Приморский край, Россия): широта 45.47 долгота 133.30 высота над уровнем моря 105 м.

В архиве по умолчанию представлена погода в Лесозаводске за последнюю неделю. Архивные данные за месяц целиком и за предыдущие месяцы, начиная с января 2011 года, Вы можете получить, выбрав интересующий диапазон дат из раскрывающегося списка и нажав кнопку "Ввод!".


*Определитесь, кто Вы:
робот инопланетянин человек

Внимание! Время в таблицах - всемирное. Для получения местного времени необходимо прибавить поправку, которая равна 10 ч.

Смотрите также архив погоды в соседних городах и на ближайших метеорологических станциях:

Погода в Хулине (Хэйлунцзян, Китай) (43 км)
Погода в Кировском (Приморский край, Россия) (44 км)
Погода в Дальнереченске (Приморский край, Россия) (54 км)
Погода в Малиново (Приморский край, Россия) (70 км)
Погода в Свиягино (Приморский край, Россия) (78 км)
Погода в Спасск-Дальнем (Приморский край, Россия) (101 км)
Погода в Турьем Роге (Приморский край, Россия) (107 км)
Погода в Баоцине (Хэйлунцзян, Китай) (128 км)
Погода в Астраханке (Приморский край, Россия) (132 км)
Погода в Чугуевке (Приморский край, Россия) (152 км)

Пояснения к столбцам:

Ветер - указаны скорость ветра в м/с - средняя за 10 мин, порывы в срок и между сроками (в фигурных скобках) и направление, откуда дует ветер: С - северный, СВ - северо-восточный, В - восточный, ЮВ - юго-восточный, Ю - южный, ЮЗ - юго-западный, З - западный, СЗ - северо-западный.
Видимость - горизонтальная дальность видимости в метрах или километрах. При видимости от 1 до 10 км при отсутствии осадков обычно наблюдается дымка, при ухудшении видимости до 1 км и менее - туман. В сухую погоду видимость может ухудшаться дымом, пылью или мглою.
Явления - указаны атмосферные явления, наблюдавшиеся в срок или в последний час перед сроком; фигурными скобками обозначены явления, наблюдавшиеся между сроками (за 1-3 часа до срока); квадратными скобками обозначены град или гололедные отложения с указанием их диаметра в мм.
Облачность - указаны через наклонную черту общая и нижняя облачность в баллах и высота нижней границы облаков в метрах; квадратными скобками обозначены формы облаков: Ci - перистые, Cs - перисто-слоистые, Cc - перисто-кучевые, Ac - высококучевые, As - высокослоистые, Sc - слоисто-кучевые, Ns - слоисто-дождевые, Cu - кучевые, Cb - кучево-дождевые. Подробнее классификацию облаков см. в Атласе облаков (PDF).
T - Температура воздуха - температура, измеренная на высоте 2 м над землей.
Td - Температура точки росы - температура, при понижении до которой содержащийся в воздухе водяной пар достигнет насыщения.
f - Относительная влажность воздуха - влажноcть воздуха, измеренная на высоте 2 м над землей.
Te - Эффективная температура - температура, которую ощущает одетый по сезону человек в тени. Характеристика душности погоды. При расчете учитывается влияние влажности воздуха и скорости ветра на теплоощущения человека.
Tes - Эффективная температура на солнце - температура, которую ощущает человек, с поправкой на солнечный нагрев. Характеристика знойности погоды. Зависит от высоты солнца над горизонтом, облачности и скорости ветра. Ночью, в пасмурную погоду, а также при ветре 12 м/с и более поправка равна нулю.
P - Атмосферное давление - приведенное к уровню моря атмосферное давление.
Po - Атмосферное давление - измеренное на уровне метеостанции атмосферное давление.
Tmin - Минимальная температура - минимум температуры воздуха на высоте 2 м над землей.
Tmax - Максимальная температура - максимум температуры воздуха на высоте 2 м над землей.
R - Количество осадков - Количество выпавших осадков за период времени, мм. При наведении курсора мыши на число - период времени, за который выпало указанное количество осадков.
R24 - Количество осадков - Количество выпавших осадков за 24 часа, мм.
S - Снежный покров - Высота снежного покрова, см. При наведении курсора мыши на число - состояние снежного покрова и степень покрытия местности в баллах.